Location: Christian Reformed Church
(43.0975°N, 93.8113°W)
Time: 01:56:40
(UTC+00:00)

Cosmos 2221 - Pass Details

Date: 13 December 2025
Orbit: 569 x 590 km, 82.5° (Epoch: 14 January)

Event Time Altitude Azimuth Distance (km) Brightness Sun altitude
Exits shadow 12:12:30 - 353° (N) 2,614 5.5 -15.1°
Reaches altitude 10° 12:14:17 10° 354° (N) 1,879 4.8 -14.8°
Maximum altitude 12:18:26 79° 81° (E) 586 2.5 -14.1°
Drops below altitude 10° 12:22:32 10° 169° (S) 1,865 5.4 -13.4°
Sets 12:24:43 0° 170° (S) 2,760 6.3 -13.0°
